Tracking 20037 objects as of 20-Nov-2019
Live streaming from Space Station
objects crossing your sky now

IRIDIUM 128

Track IRIDIUM 128 now!
10-day predictions
IRIDIUM 128 is classified as:


NORAD ID: 42811
Int'l Code: 2017-039J
Perigee: 783.5 km
Apogee: 786.2 km
Inclination: 86.4 °
Period: 100.4 minutes
Semi major axis: 7155 km
RCS: Unknown
Launch date: June 25, 2017
Source: United States (US)
Launch site: AIR FORCE WESTERN TEST RANGE (AFWTR)
aabbcc
Your satellite tracking list
Your tracking list is empty




NASA's NSSDC Master Catalog

Two Line Element Set (TLE):
1 42811U 17039J   19323.56743957 +.00000108 +00000-0 +31355-4 0  9990
2 42811 086.3934 308.7668 0001899 063.5239 296.6152 14.34216546125751
Source of the keplerian elements: AFSPC